sat.trackr.live / text

‹ back to catalog

STARLINK-36761

NORAD 67867 · 2026-034T

PAYLOAD ACTIVE UNKNOWN

§ Identity

Operator
Country
US
Launch date
2026-02-20
Launch site
AFETR
Launch vehicle
Mass (kg)
RCS (m²)

Purposes: comms

External: N2YO · Heavens-Above · Gunter

§ Orbital elements

Epoch: 2026-09-19T22:00:20.806272Z

Period
93.85 min
Inclination
53.1578°
Eccentricity
0.0001203
Mean motion
15.34404517 rev/d
Perigee alt
461.9 km
Apogee alt
463.5 km
Semi-major
6,840.8 km
B*
4.4852e-4
RAAN
20.5968°
Arg perigee
90.7424°
Mean anomaly
269.3717°
Rev number
3,379

§ Raw data

STARLINK-367611 67867U 26034T   26262.91690748  .00014810  00000+0  44852-3 0  99902 67867  53.1578  20.5968 0001203  90.7424 269.3717 15.34404517 33798

JSON: /api/v1/satellites/67867 · /tle

For live sub-satellite position, see the globe view (requires WebGL).

§ Visibility from observer

Set your observer location to see the next 7 days of passes ≥ 10°. The values pass through the URL so the page stays shareable.

No JS? Fill the form by hand. The geolocation button needs JavaScript.